This demonstration page uses our WeatherBlox Daily Observations layout. Learn more.

36.17497, -115.13722

Hourly Observations for August 4, 2018

Temp ( °F °C ) Dew Point ( °F °C ) Humidity (%) Winds ( mph kmh ) Pressure ( in mb ) Visibility ( mi km ) Precip ( " mm )
12:53 am 00:53 Clear 92 33.3 59 15 33 33 Calm 29.76 1008 10 16.0934 0 0
1:53 am 01:53 Clear 91 32.8 55 12.8 30 30 WSW 5 7 29.75 1008 10 16.0934 0 0
2:53 am 02:53 Clear 90 32.2 53 11.7 28 28 SSW 7 11 29.76 1008 10 16.0934 0 0
3:53 am 03:53 Clear 87 30.6 58 14.4 37 37 WNW 3 6 29.77 1008 10 16.0934 0 0
4:53 am 04:53 Clear 84 28.9 57 13.9 40 40 WNW 5 7 29.78 1008 10 16.0934 0 0
5:53 am 05:53 Sunny 84 28.9 58 14.4 41 41 Calm 29.79 1009 10 16.0934 0 0
6:53 am 06:53 Sunny 84 28.9 55 12.8 37 37 N 5 7 29.81 1010 10 16.0934 0 0
7:53 am 07:53 Sunny 88 31.1 52 11.1 29 29 N 6 9 29.82 1010 10 16.0934 0 0
8:53 am 08:53 Sunny 92 33.3 44 6.7 19 19 Calm 29.82 1010 10 16.0934 0 0
9:53 am 09:53 Sunny 97 36.1 42 5.6 15 15 Calm 29.8 1009 10 16.0934 0 0
10:53 am 10:53 Sunny 103 39.4 34 1.1 9 9 SSE 8 13 29.79 1009 10 16.0934 0 0
11:53 am 11:53 Sunny 107 41.7 45 7.2 12 12 SSW 17 28 29.75 1008 10 16.0934 0 0
12:01 pm 12:01 Sunny 107 41.7 45 7.2 12 12 S 17 28 29.56 1001 10 16.0934 0 0
12:21 pm 12:21 Sunny with Nearby Thunderstorms 107 41.7 46 7.8 13 13 S 17 28 29.56 1001 10 16.0934 0 0
12:36 pm 12:36 Sunny 108 42.2 46 7.8 12 12 S 20 31 29.56 1001 10 16.0934 0 0
12:53 pm 12:53 Sunny 107 41.7 45 7.2 12 12 S 14 22 29.73 1007 10 16.0934 0 0
1:29 pm 13:29 Sunny with Nearby Thunderstorms 107 41.7 44 6.7 12 12 SSW 16 26 29.56 1001 10 16.0934 0 0
1:44 pm 13:44 Sunny 107 41.7 44 6.7 12 12 SSW 18 30 29.56 1001 10 16.0934 0 0
1:53 pm 13:53 Sunny 108 42.2 44 6.7 12 12 SW 12 19 29.73 1007 10 16.0934 0 0
2:53 pm 14:53 Sunny 109 42.8 40 4.4 9 9 SSW 15 24 29.71 1006 10 16.0934 0 0
3:53 pm 15:53 Sunny 108 42.2 40 4.4 10 10 SSW 17 28 29.68 1005 10 16.0934 0 0
4:53 pm 16:53 Sunny 108 42.2 38 3.3 9 9 WSW 16 26 29.67 1005 10 16.0934 0 0
5:53 pm 17:53 Sunny 107 41.7 38 3.3 9 9 SW 17 28 29.66 1004 10 16.0934 0 0
6:53 pm 18:53 Sunny 105 40.6 31 -0.6 7 7 SW 13 20 29.66 1004 10 16.0934 0 0
7:53 pm 19:53 Clear 102 38.9 23 -5 6 6 WSW 9 15 29.67 1005 10 16.0934 0 0
8:53 pm 20:53 Clear 100 37.8 18 -7.8 5 5 SW 12 19 29.67 1005 8 12.87472 0 0
9:53 pm 21:53 Clear 99 37.2 20 -6.7 6 6 SW 14 22 29.67 1005 7 11.26538 0 0
10:53 pm 22:53 Clear 97 36.1 24 -4.4 7 7 SW 13 20 29.67 1005 9 14.48406 0 0
11:53 pm 23:53 Clear 96 35.6 26 -3.3 8 8 SSW 12 19 29.69 1005 10 16.0934 0 0

Powered by AerisWeather